Year,Month,Day,Hour,Minute,Value (Times are PST for windspeed in km/hr)
2011,08,01,00,00,0.20
2011,08,01,00,01,2.50
2011,08,01,00,05,1.10
2011,08,01,00,06,2.40
2011,08,01,00,07,0.10
2011,08,01,00,08,2.30
2011,08,01,00,09,0.70
2011,08,01,00,10,1.30
2011,08,01,00,11,0.00
2011,08,01,00,12,3.90
2011,08,01,00,13,2.60
2011,08,01,00,14,3.50
2011,08,01,00,15,0.20
2011,08,01,00,16,1.00
2011,08,01,00,17,0.20
2011,08,01,00,18,0.10
2011,08,01,00,19,1.50
2011,08,01,00,20,0.80
2011,08,01,00,21,0.20
2011,08,01,00,22,0.30
2011,08,01,00,23,0.80
2011,08,01,00,24,0.10
2011,08,01,00,25,1.50
2011,08,01,00,26,1.70
2011,08,01,00,27,1.00
2011,08,01,00,28,3.10
2011,08,01,00,29,2.00
2011,08,01,00,30,2.30
2011,08,01,00,31,0.50
2011,08,01,00,32,0.10
2011,08,01,00,33,1.00
2011,08,01,00,34,0.30
2011,08,01,00,35,0.70
2011,08,01,00,36,0.10
2011,08,01,00,37,1.20
2011,08,01,00,38,3.20
2011,08,01,00,39,2.70
2011,08,01,00,40,3.10
2011,08,01,00,41,0.80
2011,08,01,00,42,2.30
2011,08,01,00,43,2.10
2011,08,01,00,44,2.10
2011,08,01,00,45,0.20
2011,08,01,00,46,1.10
2011,08,01,00,47,0.60
2011,08,01,00,48,0.70
2011,08,01,00,49,0.20
2011,08,01,00,50,2.60
2011,08,01,00,51,0.80
2011,08,01,00,52,0.40
2011,08,01,00,53,0.00
2011,08,01,00,54,0.10
2011,08,01,00,55,0.00
2011,08,01,00,56,0.10
2011,08,01,00,57,0.00
2011,08,01,00,58,0.10
2011,08,01,00,59,0.00
2011,08,01,01,00,0.00
2011,08,01,01,01,0.00
2011,08,01,01,02,0.00
2011,08,01,01,03,0.00
2011,08,01,01,04,0.00
2011,08,01,01,05,0.00
2011,08,01,01,06,0.00
2011,08,01,01,07,0.20
2011,08,01,01,08,2.30
2011,08,01,01,09,0.00
2011,08,01,01,10,0.00
2011,08,01,01,11,0.00
2011,08,01,01,12,0.10
2011,08,01,01,13,0.10
2011,08,01,01,14,2.50
2011,08,01,01,15,0.70
2011,08,01,01,16,0.00
2011,08,01,01,17,0.00
2011,08,01,01,18,0.00
2011,08,01,01,19,0.00
2011,08,01,01,20,0.00
2011,08,01,01,21,0.00
2011,08,01,01,22,0.10
2011,08,01,01,23,1.00
2011,08,01,01,24,0.20
2011,08,01,01,25,0.10
2011,08,01,01,26,0.70
2011,08,01,01,27,1.20
2011,08,01,01,28,0.10
2011,08,01,01,29,0.00
2011,08,01,01,30,0.00
2011,08,01,01,31,0.00
2011,08,01,01,32,0.10
2011,08,01,01,33,0.00
2011,08,01,01,34,0.10
2011,08,01,01,35,0.00
2011,08,01,01,36,3.20
2011,08,01,01,37,0.00
2011,08,01,01,38,0.00
2011,08,01,01,39,0.00
2011,08,01,01,40,0.00
2011,08,01,01,41,0.10
2011,08,01,01,42,0.10
2011,08,01,01,43,0.00
2011,08,01,01,44,0.10
2011,08,01,01,45,3.00
2011,08,01,01,46,2.30
2011,08,01,01,47,1.10
2011,08,01,01,48,3.10
2011,08,01,01,49,3.00
2011,08,01,01,50,1.40
2011,08,01,01,51,2.90
2011,08,01,01,52,2.70
2011,08,01,01,53,2.60
2011,08,01,01,54,3.50
2011,08,01,01,55,3.00
2011,08,01,01,56,2.90
2011,08,01,01,57,2.40
2011,08,01,01,58,3.90
2011,08,01,01,59,1.50
2011,08,01,02,00,0.80
2011,08,01,02,01,0.20
2011,08,01,02,02,0.00
2011,08,01,02,03,0.10
2011,08,01,02,04,0.10
2011,08,01,02,05,0.00
2011,08,01,02,06,0.20
2011,08,01,02,07,0.00
2011,08,01,02,08,0.00
2011,08,01,02,09,1.20
2011,08,01,02,10,2.20
2011,08,01,02,11,0.30
2011,08,01,02,12,1.40
2011,08,01,02,13,2.40
2011,08,01,02,14,1.30
2011,08,01,02,15,0.20
2011,08,01,02,16,0.10
2011,08,01,02,17,1.90
2011,08,01,02,18,2.90
2011,08,01,02,19,2.50
2011,08,01,02,20,2.60
2011,08,01,02,21,2.10
2011,08,01,02,22,3.60
2011,08,01,02,23,0.20
2011,08,01,02,24,3.60
2011,08,01,02,25,3.60
2011,08,01,02,26,2.90
2011,08,01,02,27,3.60
2011,08,01,02,28,3.00
2011,08,01,02,29,3.00
2011,08,01,02,30,2.60
2011,08,01,02,31,1.70
2011,08,01,02,32,3.60
2011,08,01,02,33,2.30
2011,08,01,02,34,2.90
2011,08,01,02,35,2.00
2011,08,01,02,36,1.90
2011,08,01,02,37,0.60
2011,08,01,02,38,1.00
2011,08,01,02,39,1.50
2011,08,01,02,40,0.00
2011,08,01,02,41,1.70
2011,08,01,02,42,1.40
2011,08,01,02,43,1.10
2011,08,01,02,44,1.90
2011,08,01,02,45,2.60
2011,08,01,02,46,2.20
2011,08,01,02,47,3.10
2011,08,01,02,48,2.80
2011,08,01,02,49,1.30
2011,08,01,02,50,0.60
2011,08,01,02,51,3.30
2011,08,01,02,52,3.10
2011,08,01,02,53,3.30
2011,08,01,02,54,2.00
2011,08,01,02,55,2.00
2011,08,01,02,56,3.00
2011,08,01,02,57,2.20
2011,08,01,02,58,0.40
2011,08,01,02,59,0.00
2011,08,01,03,00,0.00
2011,08,01,03,01,0.00
2011,08,01,03,02,0.00
2011,08,01,03,03,0.00
2011,08,01,03,04,0.00
2011,08,01,03,05,0.00
2011,08,01,03,06,0.00
2011,08,01,03,07,0.00
2011,08,01,03,08,0.00
2011,08,01,03,09,0.00
2011,08,01,03,10,0.00
2011,08,01,03,11,0.00
2011,08,01,03,12,0.00
2011,08,01,03,13,0.00
2011,08,01,03,14,0.00
2011,08,01,03,15,0.00
2011,08,01,03,16,0.10
2011,08,01,03,17,1.10
2011,08,01,03,18,1.50
2011,08,01,03,19,0.80
2011,08,01,03,20,0.10
2011,08,01,03,21,2.30
2011,08,01,03,22,3.10
2011,08,01,03,23,2.60
2011,08,01,03,24,1.20
2011,08,01,03,25,3.00
2011,08,01,03,26,3.90
2011,08,01,03,27,2.30
2011,08,01,03,28,3.50
2011,08,01,03,29,4.60
2011,08,01,03,30,4.60
2011,08,01,03,31,3.00
2011,08,01,03,32,3.50
2011,08,01,03,33,3.50
2011,08,01,03,34,3.70
2011,08,01,03,35,2.60
2011,08,01,03,36,0.20
2011,08,01,03,37,0.00
2011,08,01,03,38,0.00
2011,08,01,03,39,2.00
2011,08,01,03,40,1.00
2011,08,01,03,41,0.90
2011,08,01,03,42,3.10
2011,08,01,03,43,2.90
2011,08,01,03,44,3.80
2011,08,01,03,45,2.90
2011,08,01,03,46,2.70
2011,08,01,03,47,1.80
2011,08,01,03,48,0.00
2011,08,01,03,49,0.00
2011,08,01,03,50,0.10
2011,08,01,03,51,0.00
2011,08,01,03,52,0.00
2011,08,01,03,53,0.00
2011,08,01,03,54,0.00
2011,08,01,03,55,0.10
2011,08,01,03,56,0.00
2011,08,01,03,57,0.10
2011,08,01,03,58,3.30
2011,08,01,03,59,3.90
2011,08,01,04,00,3.90
2011,08,01,04,01,3.30
2011,08,01,04,02,3.70
2011,08,01,04,03,4.70
2011,08,01,04,04,3.90
2011,08,01,04,05,4.10
2011,08,01,04,06,3.90
2011,08,01,04,07,3.70
2011,08,01,04,08,3.50
2011,08,01,04,09,2.50
2011,08,01,04,10,2.80
2011,08,01,04,11,4.70
2011,08,01,04,12,2.40
2011,08,01,04,13,1.50
2011,08,01,04,14,3.10
2011,08,01,04,15,1.80
2011,08,01,04,16,2.70
2011,08,01,04,17,2.30
2011,08,01,04,18,2.60
2011,08,01,04,19,0.20
2011,08,01,04,20,0.00
2011,08,01,04,21,0.00
2011,08,01,04,22,0.00
2011,08,01,04,23,0.00
2011,08,01,04,24,0.10
2011,08,01,04,25,1.50
2011,08,01,04,26,2.40
2011,08,01,04,27,0.90
2011,08,01,04,28,0.00
2011,08,01,04,29,0.00
2011,08,01,04,30,0.00
2011,08,01,04,31,0.10
2011,08,01,04,32,1.50
2011,08,01,04,33,2.50
2011,08,01,04,34,2.20
2011,08,01,04,35,0.20
2011,08,01,04,36,0.00
2011,08,01,04,37,0.10
2011,08,01,04,38,0.00
2011,08,01,04,39,0.00
2011,08,01,04,40,1.00
2011,08,01,04,41,0.40
2011,08,01,04,42,0.70
2011,08,01,04,43,1.90
2011,08,01,04,44,1.40
2011,08,01,04,45,0.10
2011,08,01,04,46,0.10
2011,08,01,04,47,0.10
2011,08,01,04,48,1.30
2011,08,01,04,49,0.50
2011,08,01,04,50,2.70
2011,08,01,04,51,2.40
2011,08,01,04,52,4.10
2011,08,01,04,53,3.10
2011,08,01,04,54,3.50
2011,08,01,04,55,3.40
2011,08,01,04,56,3.50
2011,08,01,04,57,3.10
2011,08,01,04,58,2.90
2011,08,01,04,59,2.90
2011,08,01,05,00,3.80
2011,08,01,05,01,3.90
2011,08,01,05,02,3.90
2011,08,01,05,03,3.90
2011,08,01,05,04,4.50
2011,08,01,05,05,4.30
2011,08,01,05,06,3.30
2011,08,01,05,07,2.30
2011,08,01,05,08,1.90
2011,08,01,05,09,1.30
2011,08,01,05,10,0.50
2011,08,01,05,11,0.90
2011,08,01,05,12,0.00
2011,08,01,05,13,0.00
2011,08,01,05,14,0.00
2011,08,01,05,15,0.00
2011,08,01,05,16,0.00
2011,08,01,05,17,0.00
2011,08,01,05,18,0.00
2011,08,01,05,19,0.00
2011,08,01,05,20,0.00
2011,08,01,05,21,0.00
2011,08,01,05,22,0.70
2011,08,01,05,23,1.00
2011,08,01,05,24,2.00
2011,08,01,05,25,0.10
2011,08,01,05,26,0.00
2011,08,01,05,27,0.00
2011,08,01,05,28,0.00
2011,08,01,05,29,0.00
2011,08,01,05,30,0.00
2011,08,01,05,31,0.00
2011,08,01,05,32,0.00
2011,08,01,05,33,0.00
2011,08,01,05,34,0.00
2011,08,01,05,35,0.00
2011,08,01,05,36,0.00
2011,08,01,05,37,0.00
2011,08,01,05,38,0.80
2011,08,01,05,39,0.00
2011,08,01,05,40,0.60
2011,08,01,05,41,1.40
2011,08,01,05,42,0.80
2011,08,01,05,43,0.10
2011,08,01,05,44,0.00
2011,08,01,05,45,0.10
2011,08,01,05,46,1.50
2011,08,01,05,47,1.20
2011,08,01,05,48,0.00
2011,08,01,05,49,0.00
2011,08,01,05,50,0.00
2011,08,01,05,51,0.00
2011,08,01,05,52,0.00
2011,08,01,05,53,0.70
2011,08,01,05,54,2.00
2011,08,01,05,55,3.30
2011,08,01,05,56,3.40
2011,08,01,05,57,2.90
2011,08,01,05,58,2.40
2011,08,01,05,59,3.00
2011,08,01,06,00,3.00
2011,08,01,06,01,1.30
2011,08,01,06,02,0.20
2011,08,01,06,03,0.20
2011,08,01,06,04,2.20
2011,08,01,06,05,1.30
2011,08,01,06,06,0.10
2011,08,01,06,07,1.30
2011,08,01,06,08,2.00
2011,08,01,06,09,0.80
2011,08,01,06,10,0.00
2011,08,01,06,11,1.40
2011,08,01,06,12,0.70
2011,08,01,06,13,0.90
2011,08,01,06,14,1.20
2011,08,01,06,15,1.30
2011,08,01,06,16,0.60
2011,08,01,06,17,0.10
2011,08,01,06,18,0.00
2011,08,01,06,19,0.10
2011,08,01,06,20,0.00
2011,08,01,06,21,0.20
2011,08,01,06,22,0.30
2011,08,01,06,23,1.50
2011,08,01,06,24,0.60
2011,08,01,06,25,0.70
2011,08,01,06,26,0.20
2011,08,01,06,27,0.00
2011,08,01,06,28,1.10
2011,08,01,06,29,4.20
2011,08,01,06,30,3.40
2011,08,01,06,31,2.20
2011,08,01,06,32,2.30
2011,08,01,06,33,0.10
2011,08,01,06,34,0.20
2011,08,01,06,35,2.50
2011,08,01,06,36,1.80
2011,08,01,06,37,5.20
2011,08,01,06,38,5.90
2011,08,01,06,39,2.60
2011,08,01,06,40,0.20
2011,08,01,06,41,0.60
2011,08,01,06,42,0.60
2011,08,01,06,43,0.10
2011,08,01,06,44,0.00
2011,08,01,06,45,1.00
2011,08,01,06,46,0.00
2011,08,01,06,47,0.20
2011,08,01,06,48,0.20
2011,08,01,06,49,0.00
2011,08,01,06,50,0.10
2011,08,01,06,51,0.10
2011,08,01,06,52,0.10
2011,08,01,06,53,0.20
2011,08,01,06,54,0.00
2011,08,01,06,55,0.00
2011,08,01,06,56,0.10
2011,08,01,06,57,0.70
2011,08,01,06,58,0.00
2011,08,01,06,59,0.20
2011,08,01,07,00,0.10
2011,08,01,07,01,0.00
2011,08,01,07,02,0.00
2011,08,01,07,03,0.00
2011,08,01,07,04,0.00
2011,08,01,07,05,1.40
2011,08,01,07,06,0.10
2011,08,01,07,07,0.00
2011,08,01,07,08,0.20
2011,08,01,07,09,0.00
2011,08,01,07,10,0.10
2011,08,01,07,11,0.00
2011,08,01,07,12,0.00
2011,08,01,07,13,2.60
2011,08,01,07,14,1.50
2011,08,01,07,15,0.50
2011,08,01,07,16,1.70
2011,08,01,07,17,0.00
2011,08,01,07,18,0.00
2011,08,01,07,19,0.00
2011,08,01,07,20,0.00
2011,08,01,07,21,0.00
2011,08,01,07,22,0.00
2011,08,01,07,23,0.00
2011,08,01,07,24,0.00
2011,08,01,07,25,0.00
2011,08,01,07,26,0.00
2011,08,01,07,27,0.00
2011,08,01,07,28,0.00
2011,08,01,07,29,0.70
2011,08,01,07,30,0.10
2011,08,01,07,31,0.00
2011,08,01,07,32,0.00
2011,08,01,07,33,0.20
2011,08,01,07,34,1.90
2011,08,01,07,35,1.40
2011,08,01,07,36,5.30
2011,08,01,07,37,5.40
2011,08,01,07,38,5.60
2011,08,01,07,39,5.10
2011,08,01,07,40,2.30
2011,08,01,07,41,0.10
2011,08,01,07,42,3.50
2011,08,01,07,43,6.10
2011,08,01,07,44,5.60
2011,08,01,07,45,4.70
2011,08,01,07,46,5.60
2011,08,01,07,47,3.60
2011,08,01,07,48,6.40
2011,08,01,07,49,0.30
2011,08,01,07,50,4.40
2011,08,01,07,51,0.80
2011,08,01,07,52,0.00
2011,08,01,07,53,1.40
2011,08,01,07,54,1.90
2011,08,01,07,55,2.20
2011,08,01,07,56,2.30
2011,08,01,07,57,3.70
2011,08,01,07,58,4.20
2011,08,01,07,59,7.50
2011,08,01,08,00,6.70
2011,08,01,08,01,3.10
2011,08,01,08,02,0.30
2011,08,01,08,03,5.90
2011,08,01,08,04,1.80
2011,08,01,08,05,1.40
2011,08,01,08,06,3.30
2011,08,01,08,07,3.40
2011,08,01,08,08,4.70
2011,08,01,08,09,3.90
2011,08,01,08,10,1.90
2011,08,01,08,11,5.90
2011,08,01,08,12,5.00
2011,08,01,08,13,2.80
2011,08,01,08,14,7.00
2011,08,01,08,15,9.20
2011,08,01,08,16,4.00
2011,08,01,08,17,1.90
2011,08,01,08,18,6.40
2011,08,01,08,19,2.80
2011,08,01,08,20,5.50
2011,08,01,08,21,1.50
2011,08,01,08,22,3.30
2011,08,01,08,23,3.40
2011,08,01,08,24,3.10
2011,08,01,08,25,6.10
2011,08,01,08,26,5.90
2011,08,01,08,27,0.10
2011,08,01,08,28,1.80
2011,08,01,08,29,2.40
2011,08,01,08,30,3.90
2011,08,01,08,31,7.90
2011,08,01,08,32,7.60
2011,08,01,08,33,5.60
2011,08,01,08,34,7.60
2011,08,01,08,35,5.80
2011,08,01,08,36,7.50
2011,08,01,08,37,3.00
2011,08,01,08,38,1.90
2011,08,01,08,39,5.90
2011,08,01,08,40,8.30
2011,08,01,08,41,4.00
2011,08,01,08,42,6.70
2011,08,01,08,43,1.40
2011,08,01,08,44,6.20
2011,08,01,08,45,2.50
2011,08,01,08,46,7.00
2011,08,01,08,47,1.50
2011,08,01,08,48,5.60
2011,08,01,08,49,6.40
2011,08,01,08,50,2.90
2011,08,01,08,51,3.60
2011,08,01,08,52,1.30
2011,08,01,08,53,2.40
2011,08,01,08,54,5.60
2011,08,01,08,55,7.10
2011,08,01,08,56,7.10
2011,08,01,08,57,9.70
2011,08,01,08,58,6.60
2011,08,01,08,59,4.50
2011,08,01,09,00,5.60
2011,08,01,09,01,7.60
2011,08,01,09,02,8.00
2011,08,01,09,03,7.30
2011,08,01,09,04,6.10
2011,08,01,09,05,2.40
2011,08,01,09,06,7.20
2011,08,01,09,07,5.70
2011,08,01,09,08,2.30
2011,08,01,09,09,3.50
2011,08,01,09,10,2.70
2011,08,01,09,11,1.90
2011,08,01,09,12,8.40
2011,08,01,09,13,5.60
2011,08,01,09,14,8.60
2011,08,01,09,15,6.20
2011,08,01,09,16,6.60
2011,08,01,09,17,7.40
2011,08,01,09,18,2.30
2011,08,01,09,19,5.80
2011,08,01,09,20,4.90
2011,08,01,09,21,5.50
2011,08,01,09,22,2.90
2011,08,01,09,23,3.50
2011,08,01,09,24,3.10
2011,08,01,09,25,1.90
2011,08,01,09,26,2.10
2011,08,01,09,27,0.80
2011,08,01,09,28,6.40
2011,08,01,09,29,7.70
2011,08,01,09,30,2.80
2011,08,01,09,31,7.70
2011,08,01,09,32,3.50
2011,08,01,09,33,9.30
2011,08,01,09,34,7.80
2011,08,01,09,35,9.00
2011,08,01,09,36,8.40
2011,08,01,09,37,5.70
2011,08,01,09,38,6.10
2011,08,01,09,39,5.10
2011,08,01,09,40,9.30
2011,08,01,09,41,5.60
2011,08,01,09,42,9.10
2011,08,01,09,43,5.60
2011,08,01,09,44,3.90
2011,08,01,09,45,3.50
2011,08,01,09,46,9.00
2011,08,01,09,47,7.80
2011,08,01,09,48,8.70
2011,08,01,09,49,5.00
2011,08,01,09,50,9.50
2011,08,01,09,51,10.70
2011,08,01,09,52,5.10
2011,08,01,09,53,5.40
2011,08,01,09,54,8.00
2011,08,01,09,55,7.40
2011,08,01,09,56,9.40
2011,08,01,09,57,9.80
2011,08,01,09,58,8.60
2011,08,01,09,59,8.10
2011,08,01,10,00,3.90
2011,08,01,10,01,5.20
2011,08,01,10,02,6.60
2011,08,01,10,03,7.40
2011,08,01,10,04,7.70
2011,08,01,10,05,5.60
2011,08,01,10,06,6.10
2011,08,01,10,07,5.70
2011,08,01,10,08,2.30
2011,08,01,10,09,7.30
2011,08,01,10,10,10.10
2011,08,01,10,11,8.80
2011,08,01,10,12,7.80
2011,08,01,10,13,7.90
2011,08,01,10,14,5.40
2011,08,01,10,15,6.70
2011,08,01,10,16,8.30
2011,08,01,10,17,5.90
2011,08,01,10,18,10.40
2011,08,01,10,19,10.00
2011,08,01,10,20,11.10
2011,08,01,10,21,4.50
2011,08,01,10,22,9.00
2011,08,01,10,23,3.60
2011,08,01,10,24,5.60
2011,08,01,10,25,7.60
2011,08,01,10,26,8.00
2011,08,01,10,27,9.70
2011,08,01,10,28,7.50
2011,08,01,10,29,8.30
2011,08,01,10,30,6.20
2011,08,01,10,31,6.30
2011,08,01,10,32,5.10
2011,08,01,10,33,8.30
2011,08,01,10,34,7.70
2011,08,01,10,35,6.00
2011,08,01,10,36,7.50
2011,08,01,10,37,7.30
2011,08,01,10,38,4.00
2011,08,01,10,39,6.90
2011,08,01,10,40,5.10
2011,08,01,10,41,6.00
2011,08,01,10,42,9.50
2011,08,01,10,43,3.00
2011,08,01,10,44,8.90
2011,08,01,10,45,7.90
2011,08,01,10,46,7.60
2011,08,01,10,47,1.70
2011,08,01,10,48,3.50
2011,08,01,10,49,5.30
2011,08,01,10,50,1.60
2011,08,01,10,51,6.40
2011,08,01,10,52,2.20
2011,08,01,10,53,10.10
2011,08,01,10,54,7.50
2011,08,01,10,55,3.60
2011,08,01,10,56,9.30
2011,08,01,10,57,8.20
2011,08,01,10,58,7.90
2011,08,01,10,59,6.00
2011,08,01,11,00,3.00
2011,08,01,11,01,7.80
2011,08,01,11,02,6.60
2011,08,01,11,03,6.80
2011,08,01,11,04,2.30
2011,08,01,11,05,6.50
2011,08,01,11,06,2.10
2011,08,01,11,07,2.80
2011,08,01,11,08,5.80
2011,08,01,11,09,4.50
2011,08,01,11,10,5.00
2011,08,01,11,11,6.00
2011,08,01,11,12,2.40
2011,08,01,11,13,0.20
2011,08,01,11,14,3.30
2011,08,01,11,15,5.70
2011,08,01,11,16,11.20
2011,08,01,11,17,3.80
2011,08,01,11,18,6.60
2011,08,01,11,19,7.50
2011,08,01,11,20,5.30
2011,08,01,11,21,5.20
2011,08,01,11,22,9.70
2011,08,01,11,23,8.40
2011,08,01,11,24,5.70
2011,08,01,11,25,6.90
2011,08,01,11,26,6.40
2011,08,01,11,27,7.60
2011,08,01,11,28,3.30
2011,08,01,11,29,3.10
2011,08,01,11,30,6.30
2011,08,01,11,31,3.00
2011,08,01,11,32,6.10
2011,08,01,11,33,4.00
2011,08,01,11,34,7.50
2011,08,01,11,35,6.50
2011,08,01,11,36,2.90
2011,08,01,11,37,6.40
2011,08,01,11,38,5.60
2011,08,01,11,39,5.30
2011,08,01,11,40,4.80
2011,08,01,11,41,8.70
2011,08,01,11,42,8.90
2011,08,01,11,43,6.40
2011,08,01,11,44,8.00
2011,08,01,11,45,6.40
2011,08,01,11,46,7.00
2011,08,01,11,47,1.50
2011,08,01,11,48,9.20
2011,08,01,11,49,7.30
2011,08,01,11,50,8.50
2011,08,01,11,51,7.40
2011,08,01,11,52,7.80
2011,08,01,11,53,5.70
2011,08,01,11,54,1.80
2011,08,01,11,55,7.20
2011,08,01,11,56,6.40
2011,08,01,11,57,4.20
2011,08,01,11,58,5.60
2011,08,01,11,59,6.80
2011,08,01,12,00,5.70
2011,08,01,12,01,2.80
2011,08,01,12,02,4.80
2011,08,01,12,03,4.80
2011,08,01,12,04,6.30
2011,08,01,12,05,6.80
2011,08,01,12,06,4.70
2011,08,01,12,07,4.40
2011,08,01,12,08,5.50
2011,08,01,12,09,4.30
2011,08,01,12,10,2.50
2011,08,01,12,11,0.20
2011,08,01,12,12,3.50
2011,08,01,12,13,2.80
2011,08,01,12,14,4.00
2011,08,01,12,15,8.00
2011,08,01,12,16,4.80
2011,08,01,12,17,3.20
2011,08,01,12,18,7.50
2011,08,01,12,19,4.80
2011,08,01,12,20,5.00
2011,08,01,12,21,8.50
2011,08,01,12,22,7.80
2011,08,01,12,23,6.30
2011,08,01,12,24,2.70
2011,08,01,12,25,5.40
2011,08,01,12,26,5.00
2011,08,01,12,27,4.80
2011,08,01,12,28,6.80
2011,08,01,12,29,5.40
2011,08,01,12,30,6.50
2011,08,01,12,31,6.60
2011,08,01,12,32,7.00
2011,08,01,12,33,6.40
2011,08,01,12,34,4.70
2011,08,01,12,35,3.80
2011,08,01,12,36,2.80
2011,08,01,12,37,6.40
2011,08,01,12,38,3.70
2011,08,01,12,39,4.80
2011,08,01,12,40,2.90
2011,08,01,12,41,6.20
2011,08,01,12,42,3.20
2011,08,01,12,43,6.50
2011,08,01,12,44,4.50
2011,08,01,12,45,6.20
2011,08,01,12,46,8.20
2011,08,01,12,47,7.40
2011,08,01,12,48,5.60
2011,08,01,12,49,7.50
2011,08,01,12,50,7.00
2011,08,01,12,51,6.30
2011,08,01,12,52,7.10
2011,08,01,12,53,5.30
2011,08,01,12,54,1.10
2011,08,01,12,55,6.30
2011,08,01,12,56,9.30
2011,08,01,12,57,7.20
2011,08,01,12,58,6.10
2011,08,01,12,59,6.00
2011,08,01,13,00,7.00
2011,08,01,13,01,6.60
2011,08,01,13,02,2.30
2011,08,01,13,03,4.10
2011,08,01,13,04,7.20
2011,08,01,13,05,6.50
2011,08,01,13,06,6.90
2011,08,01,13,07,4.20
2011,08,01,13,08,8.30
2011,08,01,13,09,7.00
2011,08,01,13,10,6.00
2011,08,01,13,11,5.20
2011,08,01,13,12,8.60
2011,08,01,13,13,9.30
2011,08,01,13,14,7.60
2011,08,01,13,15,9.60
2011,08,01,13,16,3.90
2011,08,01,13,17,6.80
2011,08,01,13,18,3.60
2011,08,01,13,19,5.00
2011,08,01,13,20,7.60
2011,08,01,13,21,8.40
2011,08,01,13,22,8.50
2011,08,01,13,23,9.80
2011,08,01,13,24,6.80
2011,08,01,13,25,7.90
2011,08,01,13,26,7.70
2011,08,01,13,27,5.80
2011,08,01,13,28,4.60
2011,08,01,13,29,8.30
2011,08,01,13,30,6.40
2011,08,01,13,31,4.80
2011,08,01,13,32,1.30
2011,08,01,13,33,6.40
2011,08,01,13,34,2.60
2011,08,01,13,35,3.60
2011,08,01,13,36,8.10
2011,08,01,13,37,6.00
2011,08,01,13,38,4.10
2011,08,01,13,39,4.30
2011,08,01,13,40,4.30
2011,08,01,13,41,4.50
2011,08,01,13,42,6.80
2011,08,01,13,43,3.10
2011,08,01,13,44,3.10
2011,08,01,13,45,6.70
2011,08,01,13,46,4.10
2011,08,01,13,47,0.60
2011,08,01,13,48,2.70
2011,08,01,13,49,2.90
2011,08,01,13,50,5.20
2011,08,01,13,51,2.00
2011,08,01,13,52,3.80
2011,08,01,13,53,4.10
2011,08,01,13,54,4.80
2011,08,01,13,55,3.00
2011,08,01,13,56,2.30
2011,08,01,13,57,6.60
2011,08,01,13,58,4.10
2011,08,01,13,59,4.10
2011,08,01,14,00,5.60
2011,08,01,14,01,4.70
2011,08,01,14,02,2.20
2011,08,01,14,03,1.40
2011,08,01,14,04,1.00
2011,08,01,14,05,2.70
2011,08,01,14,06,4.50
2011,08,01,14,07,6.50
2011,08,01,14,08,3.10
2011,08,01,14,09,4.10
2011,08,01,14,10,1.40
2011,08,01,14,11,0.80
2011,08,01,14,12,1.40
2011,08,01,14,13,6.40
2011,08,01,14,14,6.80
2011,08,01,14,15,3.30
2011,08,01,14,16,1.40
2011,08,01,14,17,5.40
2011,08,01,14,18,2.60
2011,08,01,14,19,5.40
2011,08,01,14,20,3.20
2011,08,01,14,21,5.40
2011,08,01,14,22,2.60
2011,08,01,14,23,1.30
2011,08,01,14,24,3.10
2011,08,01,14,25,1.10
2011,08,01,14,26,4.20
2011,08,01,14,27,5.80
2011,08,01,14,28,10.10
2011,08,01,14,29,7.20
2011,08,01,14,30,0.60
2011,08,01,14,31,8.60
2011,08,01,14,32,4.10
2011,08,01,14,33,2.70
2011,08,01,14,34,5.90
2011,08,01,14,35,5.00
2011,08,01,14,36,2.10
2011,08,01,14,37,2.20
2011,08,01,14,38,7.80
2011,08,01,14,39,5.10
2011,08,01,14,40,2.30
2011,08,01,14,41,4.30
2011,08,01,14,42,3.50
2011,08,01,14,43,5.10
2011,08,01,14,44,3.60
2011,08,01,14,45,7.90
2011,08,01,14,46,3.00
2011,08,01,14,47,5.40
2011,08,01,14,48,6.10
2011,08,01,14,49,7.60
2011,08,01,14,50,5.70
2011,08,01,14,51,7.60
2011,08,01,14,52,7.10
2011,08,01,14,53,3.60
2011,08,01,14,54,5.90
2011,08,01,14,55,6.00
2011,08,01,14,56,4.20
2011,08,01,14,57,3.40
2011,08,01,14,58,4.50
2011,08,01,14,59,8.00
2011,08,01,15,00,8.90
2011,08,01,15,01,6.80
2011,08,01,15,02,7.20
2011,08,01,15,03,8.00
2011,08,01,15,04,4.90
2011,08,01,15,05,0.60
2011,08,01,15,06,5.40
2011,08,01,15,07,3.70
2011,08,01,15,08,4.80
2011,08,01,15,09,7.20
2011,08,01,15,10,1.10
2011,08,01,15,11,0.80
2011,08,01,15,12,4.40
2011,08,01,15,13,1.90
2011,08,01,15,14,0.60
2011,08,01,15,15,5.40
2011,08,01,15,16,5.50
2011,08,01,15,17,4.30
2011,08,01,15,18,2.70
2011,08,01,15,19,1.80
2011,08,01,15,20,3.70
2011,08,01,15,21,6.00
2011,08,01,15,22,5.00
2011,08,01,15,23,3.20
2011,08,01,15,24,8.70
2011,08,01,15,25,6.80
2011,08,01,15,26,6.90
2011,08,01,15,27,5.60
2011,08,01,15,28,5.60
2011,08,01,15,29,7.50
2011,08,01,15,30,7.10
2011,08,01,15,31,2.70
2011,08,01,15,32,8.30
2011,08,01,15,33,2.50
2011,08,01,15,34,1.80
2011,08,01,15,35,3.30
2011,08,01,15,36,1.70
2011,08,01,15,37,4.70
2011,08,01,15,38,3.40
2011,08,01,15,39,4.50
2011,08,01,15,40,0.10
2011,08,01,15,41,4.70
2011,08,01,15,42,6.80
2011,08,01,15,43,3.50
2011,08,01,15,44,4.40
2011,08,01,15,45,3.20
2011,08,01,15,46,4.10
2011,08,01,15,47,6.40
2011,08,01,15,48,4.00
2011,08,01,15,49,5.10
2011,08,01,15,50,2.90
2011,08,01,15,51,4.40
2011,08,01,15,52,7.60
2011,08,01,15,53,5.50
2011,08,01,15,54,4.70
2011,08,01,15,55,4.10
2011,08,01,15,56,2.90
2011,08,01,15,57,1.50
2011,08,01,15,58,1.20
2011,08,01,15,59,1.10
2011,08,01,16,00,1.90
2011,08,01,16,01,0.80
2011,08,01,16,02,3.20
2011,08,01,16,03,1.00
2011,08,01,16,04,1.90
2011,08,01,16,05,0.30
2011,08,01,16,06,4.20
2011,08,01,16,07,2.50
2011,08,01,16,08,0.20
2011,08,01,16,09,3.40
2011,08,01,16,10,2.80
2011,08,01,16,11,0.40
2011,08,01,16,12,2.80
2011,08,01,16,13,2.20
2011,08,01,16,14,3.10
2011,08,01,16,15,3.50
2011,08,01,16,16,2.20
2011,08,01,16,17,6.00
2011,08,01,16,18,1.60
2011,08,01,16,19,0.30
2011,08,01,16,20,4.60
2011,08,01,16,21,4.80
2011,08,01,16,22,4.10
2011,08,01,16,23,2.80
2011,08,01,16,24,0.20
2011,08,01,16,25,3.30
2011,08,01,16,26,0.20
2011,08,01,16,27,3.10
2011,08,01,16,28,3.00
2011,08,01,16,29,1.70
2011,08,01,16,30,2.70
2011,08,01,16,31,4.70
2011,08,01,16,32,2.50
2011,08,01,16,33,0.50
2011,08,01,16,34,2.10
2011,08,01,16,35,5.90
2011,08,01,16,36,2.30
2011,08,01,16,37,2.30
2011,08,01,16,38,0.60
2011,08,01,16,39,0.20
2011,08,01,16,40,3.50
2011,08,01,16,41,1.60
2011,08,01,16,42,1.30
2011,08,01,16,43,0.80
2011,08,01,16,44,2.00
2011,08,01,16,45,2.40
2011,08,01,16,46,2.90
2011,08,01,16,47,1.20
2011,08,01,16,48,2.60
2011,08,01,16,49,1.60
2011,08,01,16,50,4.80
2011,08,01,16,51,3.00
2011,08,01,16,52,1.60
2011,08,01,16,53,0.80
2011,08,01,16,54,3.90
2011,08,01,16,55,6.60
2011,08,01,16,56,6.60
2011,08,01,16,57,1.00
2011,08,01,16,58,3.60
2011,08,01,16,59,4.50
2011,08,01,17,00,5.60
2011,08,01,17,01,3.00
2011,08,01,17,02,3.70
2011,08,01,17,03,2.40
2011,08,01,17,04,4.30
2011,08,01,17,05,3.50
2011,08,01,17,06,3.70
2011,08,01,17,07,4.30
2011,08,01,17,08,2.80
2011,08,01,17,09,1.20
2011,08,01,17,10,0.40
2011,08,01,17,11,0.90
2011,08,01,17,12,0.20
2011,08,01,17,13,4.50
2011,08,01,17,14,4.70
2011,08,01,17,15,3.30
2011,08,01,17,16,5.20
2011,08,01,17,17,3.40
2011,08,01,17,18,2.80
2011,08,01,17,19,1.40
2011,08,01,17,20,0.20
2011,08,01,17,21,0.40
2011,08,01,17,22,4.70
2011,08,01,17,23,2.40
2011,08,01,17,24,1.90
2011,08,01,17,25,0.10
2011,08,01,17,26,1.00
2011,08,01,17,27,0.20
2011,08,01,17,28,4.10
2011,08,01,17,29,5.00
2011,08,01,17,30,4.90
2011,08,01,17,31,5.00
2011,08,01,17,32,3.60
2011,08,01,17,33,0.40
2011,08,01,17,34,3.90
2011,08,01,17,35,1.30
2011,08,01,17,36,2.30
2011,08,01,17,37,3.00
2011,08,01,17,38,3.00
2011,08,01,17,39,1.00
2011,08,01,17,40,1.00
2011,08,01,17,41,2.00
2011,08,01,17,42,0.80
2011,08,01,17,43,2.60
2011,08,01,17,44,3.80
2011,08,01,17,45,0.10
2011,08,01,17,46,3.70
2011,08,01,17,47,4.60
2011,08,01,17,48,1.00
2011,08,01,17,49,3.20
2011,08,01,17,50,4.30
2011,08,01,17,51,3.00
2011,08,01,17,52,2.00
2011,08,01,17,53,3.20
2011,08,01,17,54,1.80
2011,08,01,17,55,4.30
2011,08,01,17,56,0.60
2011,08,01,17,57,0.40
2011,08,01,17,58,5.30
2011,08,01,17,59,2.00
2011,08,01,18,00,4.70
2011,08,01,18,01,0.80
2011,08,01,18,02,2.80
2011,08,01,18,03,2.00
2011,08,01,18,04,1.40
2011,08,01,18,05,3.00
2011,08,01,18,06,1.80
2011,08,01,18,07,1.40
2011,08,01,18,08,3.50
2011,08,01,18,09,0.40